Waterloo, IA

4:26 PM CDT on April 20, 2018 (GMT -0500)
Waterloo Municipal

Weather History for KALO - April, 2014

Change the Weather History Date:

Sunday, April 27, 2014

  Actual Average Record
Temperature  
Mean Temperature 51 °F 54 °F  
Max Temperature 62 °F 66 °F 89 °F (1981)
Min Temperature 39 °F 42 °F 24 °F (1928)
Degree Days  
Heating Degree Days 14 12  
Month to date heating degree days 500 459  
Since 1 July heating degree days 8040 6784  
Cooling Degree Days 0 0  
Month to date cooling degree days 2 0  
Year to date cooling degree days 2 0  
Moisture  
Dew Point 42 °F    
Average Humidity 73    
Maximum Humidity 92    
Minimum Humidity 53    
Precipitation  
Precipitation 0.94 in 0.14 in 0.98 in (2002)
Month to date precipitation 6.68 3.27  
Year to date precipitation 10.81 7.15  
Snow  
Snow 0.00 in 0.10 in T in (1979)
Month to date snowfall 0.4 1.8  
Since 1 July snowfall 58.0 35.3  
Snow Depth 0.00 in    
Sea Level Pressure  
Sea Level Pressure 29.68 in    
Wind  
Wind Speed 26 mph (ESE)    
Max Wind Speed 38 mph    
Max Gust Speed 48 mph    
Visibility 8 miles    
Events Rain    
T = Trace of Precipitation, MM = Missing Value Source: NWS Daily Summary

Daily Weather History Graph

Daily Weather History Graph

Search for Another Location

Airport or City:

Astronomy

Apr. 27, 2014 Rise Set
Actual Time 6:09 AM CDT 8:05 PM CDT
Civil Twilight 5:39 AM CDT 8:35 PM CDT
Nautical Twilight 5:02 AM CDT 9:12 PM CDT
Astronomical Twilight 4:22 AM CDT 9:53 PM CDT
Moon 5:13 AM CDT (4/27) 6:37 PM CDT (4/27)
Length of Visible Light 14h 56m
Length of Day
13h 55m
Waning Crescent, 3% of the Moon is Illuminated
Apr 27
Waning Crescent
Apr 29
New
May 6
First Quarter
May 14
Full
May 21
Last Quarter

Hourly Weather History & Observations

Time (CDT) Temp. Windchill Dew Point Humidity Pressure Visibility Wind Dir Wind Speed Gust Speed Precip Events Conditions
12:54 AM 46.0 °F 37.0 °F 32.0 °F 58% 29.87 in 10.0 mi East 27.6 mph 36.8 mph N/A   Overcast
1:54 AM 44.1 °F 34.4 °F 28.9 °F 55% 29.87 in 10.0 mi East 27.6 mph 36.8 mph N/A   Overcast
2:54 AM 42.1 °F 33.6 °F 32.0 °F 67% 29.86 in 10.0 mi East 18.4 mph 27.6 mph 0.00 in Rain Light Rain
3:54 AM 39.9 °F 28.2 °F 35.1 °F 83% 29.79 in 6.0 mi East 31.1 mph 38.0 mph 0.07 in Rain Rain
4:13 AM 39.0 °F 27.2 °F 36.0 °F 89% 29.76 in 2.0 mi East 29.9 mph 39.1 mph 0.19 in Rain Heavy Rain
4:25 AM 39.9 °F 30.0 °F 36.0 °F 86% 29.80 in 7.0 mi East 21.9 mph 36.8 mph 0.29 in Rain Light Rain
4:54 AM 39.9 °F 30.0 °F 37.0 °F 89% 29.81 in 8.0 mi East 21.9 mph 35.7 mph 0.45 in Rain Light Rain
5:54 AM 43.0 °F 32.5 °F 37.0 °F 80% 29.76 in - ESE 29.9 mph 36.8 mph 0.02 in   Overcast
6:54 AM 43.0 °F 32.5 °F 37.0 °F 80% 29.75 in - ESE 29.9 mph 42.6 mph N/A   Overcast
7:54 AM 44.1 °F 34.4 °F 37.9 °F 79% 29.73 in 10.0 mi ESE 27.6 mph 42.6 mph N/A   Overcast
8:54 AM 44.1 °F 35.2 °F 39.9 °F 85% 29.71 in 10.0 mi ESE 23.0 mph 34.5 mph 0.00 in Rain Rain
9:54 AM 46.0 °F 37.4 °F 41.0 °F 83% 29.68 in 10.0 mi ESE 25.3 mph 36.8 mph 0.01 in   Scattered Clouds
11:54 AM 53.1 °F - 45.0 °F 74% 29.69 in 8.0 mi East 26.5 mph 33.4 mph N/A   Mostly Cloudy
12:54 PM 53.1 °F - 45.0 °F 74% 29.67 in 8.0 mi ESE 25.3 mph 32.2 mph N/A   Overcast
1:54 PM 57.0 °F - 46.0 °F 67% 29.61 in 10.0 mi East 26.5 mph 38.0 mph N/A   Scattered Clouds
2:54 PM 60.8 °F - 46.4 °F 59% 29.58 in 10.0 mi East 29.9 mph 36.8 mph N/A   Scattered Clouds
3:54 PM 61.0 °F - 46.0 °F 58% 29.54 in 10.0 mi East 28.8 mph 46.0 mph N/A   Overcast
4:39 PM 57.9 °F - 46.9 °F 67% 29.63 in 1.5 mi ESE 29.9 mph 40.3 mph 0.00 in Rain Rain
4:54 PM 55.9 °F - 48.0 °F 75% 29.62 in 3.0 mi ESE 27.6 mph 38.0 mph 0.14 in Rain Light Rain
5:54 PM 54.0 °F - 50.0 °F 86% 29.58 in 5.0 mi ESE 25.3 mph 33.4 mph 0.15 in Rain Light Rain
6:54 PM 53.1 °F - 50.0 °F 89% 29.54 in 10.0 mi ESE 27.6 mph 44.9 mph 0.05 in   Scattered Clouds
7:54 PM 54.0 °F - 50.0 °F 86% 29.57 in 10.0 mi ESE 21.9 mph 32.2 mph N/A   Partly Cloudy
8:54 PM 52.0 °F - 48.0 °F 86% 29.60 in 10.0 mi ESE 27.6 mph 35.7 mph N/A   Mostly Cloudy
9:54 PM 51.1 °F - 46.9 °F 86% 29.61 in 10.0 mi East 21.9 mph 29.9 mph N/A   Mostly Cloudy
10:54 PM 50.0 °F - 45.0 °F 83% 29.61 in 10.0 mi ESE 26.5 mph 38.0 mph N/A   Overcast
11:07 PM 50.0 °F - 46.4 °F 87% 29.59 in 10.0 mi East 28.8 mph 41.4 mph N/A   Overcast
11:52 PM 48.2 °F - 46.4 °F 93% 29.58 in 10.0 mi ESE 27.6 mph 33.4 mph N/A   Overcast
11:54 PM 50.0 °F - 46.0 °F 86% 29.59 in 10.0 mi ESE 24.2 mph 33.4 mph N/A   Overcast